This is the latest recevied weather packets stored in our database for station/object KB8SSH. If no packets are shown the sender has not sent any weather packets the latest 10 day(s).
| Time | Temp. | Humidity | Pressure | Rain* | Wind** | Luminosity | Snow |
|---|---|---|---|---|---|---|---|
| 1777740579 | 8.89° C | 54% | 1050.9 hPa | 0 mm | - | 326 W/m² | - |
| 1777740275 | 8.33° C | 54% | 1050.9 hPa | 0 mm | - | 280 W/m² | - |
| 1777739971 | 8.89° C | 52% | 1050.9 hPa | 0 mm | - | 290 W/m² | - |
| 1777739667 | 8.89° C | 50% | 1051.2 hPa | 0 mm | - | 253 W/m² | - |
| 1777739366 | 8.33° C | 55% | 1050.9 hPa | 0 mm | - | 845 W/m² | - |
| 1777739062 | 8.89° C | 58% | 1051.2 hPa | 0 mm | - | 155 W/m² | - |
| 1777738759 | 9.44° C | 54% | 1051.2 hPa | 0 mm | - | 842 W/m² | - |
| 1777738455 | 8.33° C | 54% | 1051.2 hPa | 0 mm | - | 716 W/m² | - |
| 1777738153 | 8.89° C | 58% | 1051.2 hPa | 0 mm | - | 192 W/m² | - |
| 1777737851 | 8.33° C | 54% | 1051.2 hPa | 0 mm | - | 738 W/m² | - |
| 1777737549 | 8.33° C | 59% | 1051.6 hPa | 0 mm | - | 147 W/m² | - |
| 1777737242 | 8.89° C | 59% | 1051.2 hPa | 0 mm | - | 128 W/m² | - |
| 1777736937 | 7.22° C | 56% | 1051.6 hPa | 0 mm | - | 121 W/m² | - |
| 1777736032 | 7.78° C | 59% | 1051.6 hPa | 0 mm | - | 468 W/m² | - |
| 1777735729 | 7.22° C | 57% | 1051.6 hPa | 0 mm | - | 135 W/m² | - |
| 1777735426 | 7.22° C | 61% | 1051.2 hPa | 0 mm | - | 149 W/m² | - |
| 1777735124 | 7.22° C | 62% | 1051.6 hPa | 0 mm | - | 124 W/m² | - |
| 1777734820 | 8.33° C | 61% | 1051.2 hPa | 0 mm | - | 124 W/m² | - |
| 1777734518 | 7.78° C | 63% | 1051.2 hPa | 0 mm | - | 180 W/m² | - |
| 1777734214 | 7.78° C | 63% | 1051.2 hPa | 0 mm | - | 98 W/m² | - |
| 1777733910 | 7.78° C | 59% | 1051.2 hPa | 0 mm | - | 122 W/m² | - |
| 1777733607 | 7.78° C | 64% | 1051.2 hPa | 0 mm | - | 141 W/m² | - |
| 1777733304 | 7.78° C | 65% | 1050.9 hPa | 0 mm | - | 113 W/m² | - |
| 1777733001 | 7.78° C | 65% | 1050.9 hPa | 0 mm | - | 137 W/m² | - |
| 1777732696 | 6.67° C | 64% | 1051.2 hPa | 0 mm | - | 160 W/m² | - |
* Rain latest hour (hover to see other rain measurements)
** Current wind speed in m/s (hover to see current wind gust speed)